FW5122 Weather Reports


Display with metric or nautical units.
time (UTC)temp
F
wind
direction
speed
MPH
gust
MPH
rain 1hr
in
rain 24hr
in
rain mn
in
humidity
%
barometer
mb
20260902112433 78 59 0.0 0.0 0.00 0.00 0.00 73 1016.5
20260902111032 79 59 0.0 0.0 0.00 0.00 0.00 72 1016.2
20260902110332 79 59 0.0 0.0 0.00 0.00 0.00 72 1016.5
20260902105633 79 59 0.0 0.0 0.00 0.00 0.00 71 1016.5
20260902104933 79 59 0.0 0.0 0.00 0.00 0.00 71 1016.2
20260902104232 79 59 0.0 0.0 0.00 0.00 0.00 71 1016.5
20260902103533 79 59 0.0 0.0 0.00 0.00 0.00 70 1016.2
20260902102832 79 61 0.0 0.0 0.00 0.00 0.00 70 1016.2
20260902102132 79 58 0.0 0.0 0.00 0.00 0.00 70 1016.2
20260902101432 79 59 0.0 0.0 0.00 0.00 0.00 70 1016.5
20260902100033 79 59 0.0 0.0 0.00 0.00 0.00 70 1016.5
20260902093933 80 59 0.0 0.0 0.00 0.00 0.00 69 1016.2
20260902093232 80 63 0.0 0.0 0.00 0.00 0.00 69 1016.5
20260902092532 80 58 0.0 2.0 0.00 0.00 0.00 69 1016.2
20260902091833 80 59 0.0 4.0 0.00 0.00 0.00 68 1016.2
20260902091133 80 59 0.0 4.0 0.00 0.00 0.00 68 1016.5
20260902090434 81 59 0.0 4.0 0.00 0.00 0.00 67 1016.2
20260902085732 81 59 0.0 4.0 0.00 0.00 0.00 67 1016.2
20260902083632 82 59 0.0 8.0 0.00 0.00 0.00 66 1015.8
20260902082933 82 58 0.0 8.0 0.00 0.00 0.00 65 1016.2
20260902082232 82 64 2.0 8.0 0.00 0.00 0.00 65 1016.2
20260902081534 82 62 0.0 8.0 0.00 0.00 0.00 65 1016.2
20260902080135 82 61 5.0 8.0 0.00 0.00 0.00 64 1016.2
20260902075434 83 58 0.0 6.0 0.00 0.00 0.00 64 1016.2
20260902074733 83 59 0.0 8.0 0.00 0.00 0.00 64 1016.2
20260902073333 83 57 0.0 8.0 0.00 0.00 0.00 63 1015.8
20260902072632 84 59 0.0 8.0 0.00 0.00 0.00 63 1016.2
20260902071933 84 62 2.0 8.0 0.00 0.00 0.00 63 1016.2
20260902071232 84 66 2.0 8.0 0.00 0.00 0.00 62 1016.2
20260902070532 84 72 2.0 8.0 0.00 0.00 0.00 62 1016.2
20260902065832 84 54 5.0 8.0 0.00 0.00 0.00 62 1016.5
20260902065132 84 68 8.0 8.0 0.00 0.00 0.00 62 1015.8
20260902063732 84 60 0.0 8.0 0.00 0.00 0.00 62 1015.8
20260902063032 85 60 5.0 8.0 0.00 0.00 0.00 61 1015.8
20260902062332 85 70 5.0 8.0 0.00 0.00 0.00 61 1016.2
20260902061632 85 70 8.0 8.0 0.00 0.00 0.00 61 1016.2
20260902060932 85 75 5.0 8.0 0.00 0.00 0.00 61 1016.2
20260902060232 85 61 2.0 8.0 0.00 0.00 0.00 60 1016.2
20260902055536 85 58 2.0 8.0 0.00 0.00 0.00 60 1015.8
20260902054132 86 73 8.0 8.0 0.00 0.00 0.00 59 1015.8
20260902053433 86 62 2.0 8.0 0.00 0.00 0.00 59 1016.2
20260902052732 86 60 0.0 8.0 0.00 0.00 0.00 59 1016.2
20260902052032 86 72 5.0 10.0 0.00 0.00 0.00 59 1015.8
20260902051332 86 60 0.0 10.0 0.00 0.00 0.00 58 1016.2
20260902050632 86 75 2.0 12.0 0.00 0.00 0.00 58 1016.2
20260902045232 87 64 2.0 14.0 0.00 0.00 0.00 57 1015.8
20260902044532 87 29 5.0 14.0 0.00 0.00 0.00 57 1016.2
20260902043832 87 56 8.0 14.0 0.00 0.00 0.00 56 1015.8
20260902043133 87 73 8.0 14.0 0.00 0.00 0.00 56 1015.8
20260902042432 88 60 2.0 14.0 0.00 0.00 0.00 55 1015.8
20260902041732 88 68 5.0 14.0 0.00 0.00 0.00 55 1015.8
20260902041033 88 91 5.0 14.0 0.00 0.00 0.00 54 1015.8
20260902040333 89 58 8.0 14.0 0.00 0.00 0.00 53 1015.8
20260902035632 88 89 5.0 12.0 0.00 0.00 0.00 53 1015.8
20260902034932 88 144 14.0 10.0 0.00 0.00 0.00 54 1015.8
20260902033532 87 58 0.0 2.0 0.00 0.00 0.00 54 1015.1
20260902032832 87 60 0.0 0.0 0.00 0.00 0.00 54 1015.1
20260902032132 88 59 0.0 0.0 0.00 0.00 0.00 53 1015.1
20260902031432 88 59 0.0 0.0 0.00 0.00 0.00 53 1015.1
20260902030734 88 59 0.0 0.0 0.00 0.00 0.00 53 1015.1
20260902025332 89 59 0.0 0.0 0.00 0.00 0.00 52 1014.8
20260902024632 89 58 0.0 4.0 0.00 0.00 0.00 51 1014.8
20260902023932 89 59 0.0 4.0 0.00 0.00 0.00 51 1014.8
20260902022531 90 59 0.0 4.0 0.00 0.00 0.00 50 1014.5
20260902021832 90 59 0.0 4.0 0.00 0.00 0.00 50 1014.5
20260902021132 90 60 0.0 4.0 0.00 0.00 0.00 49 1014.1
20260902020432 90 58 0.0 4.0 0.00 0.00 0.00 49 1014.1
20260902015032 90 59 0.0 2.0 0.00 0.00 0.00 49 1014.1
20260902014332 91 59 0.0 2.0 0.00 0.00 0.00 49 1013.8
20260902013631 91 59 0.0 2.0 0.00 0.00 0.00 48 1013.8
20260902012232 92 60 0.0 4.0 0.00 0.00 0.00 47 1013.8
20260902011532 92 59 0.0 6.0 0.00 0.00 0.00 46 1013.8
20260902010831 93 59 0.0 6.0 0.00 0.00 0.00 46 1013.8
20260902010132 93 64 0.0 6.0 0.00 0.00 0.00 45 1013.8
20260902005431 94 60 0.0 6.0 0.00 0.00 0.00 45 1013.8
20260902004032 94 58 0.0 8.0 0.00 0.00 0.00 44 1013.5
20260902003332 95 57 0.0 8.0 0.00 0.00 0.00 43 1013.8
20260902002631 95 66 5.0 8.0 0.00 0.00 0.00 43 1013.8
20260902001934 95 61 0.0 8.0 0.00 0.00 0.00 43 1013.8
20260902001232 96 79 5.0 8.0 0.00 0.00 0.00 43 1013.8
20260902000534 95 59 0.0 8.0 0.00 0.00 0.00 43 1013.8
20260901235831 96 59 2.0 8.0 0.00 0.00 0.00 43 1014.1
20260901235132 96 59 0.0 6.0 0.00 0.00 0.00 43 1014.1
20260901234433 96 58 0.0 6.0 0.00 0.00 0.00 43 1013.8
20260901233032 97 57 2.0 8.0 0.00 0.00 0.00 42 1014.1
20260901232332 97 47 2.0 8.0 0.00 0.00 0.00 42 1014.1
20260901231632 96 59 0.0 10.0 0.00 0.00 0.00 42 1014.1
20260901230931 97 64 5.0 10.0 0.00 0.00 0.00 42 1014.1
20260901230231 97 60 0.0 10.0 0.00 0.00 0.00 42 1014.1
20260901225531 97 132 8.0 10.0 0.00 0.00 0.00 42 1014.1
20260901224836 97 51 5.0 10.0 0.00 0.00 0.00 42 1014.1
20260901224132 97 109 8.0 10.0 0.00 0.00 0.00 42 1014.1
20260901222732 98 72 5.0 10.0 0.00 0.00 0.00 42 1014.1
20260901222031 98 62 2.0 10.0 0.00 0.00 0.00 42 1014.1
20260901220632 96 89 5.0 10.0 0.00 0.00 0.00 42 1014.1
20260901215931 96 62 0.0 10.0 0.00 0.00 0.00 42 1014.1
20260901214532 96 60 0.0 10.0 0.00 0.00 0.00 42 1014.5
20260901213831 97 74 8.0 10.0 0.00 0.00 0.00 41 1014.5
20260901213131 97 58 5.0 10.0 0.00 0.00 0.00 41 1014.5
20260901211731 100 63 2.0 10.0 0.00 0.00 0.00 39 1014.5
20260901211031 103 78 2.0 10.0 0.00 0.00 0.00 37 1014.5
20260901210332 104 55 2.0 10.0 0.00 0.00 0.00 37 1014.8
20260901204931 102 20 2.0 10.0 0.00 0.00 0.00 40 1014.8
20260901204232 100 57 2.0 10.0 0.00 0.00 0.00 41 1014.8
20260901203531 99 47 2.0 10.0 0.00 0.00 0.00 40 1014.8
20260901202833 103 85 2.0 10.0 0.00 0.00 0.00 38 1014.8
20260901202134 103 53 5.0 10.0 0.00 0.00 0.00 39 1015.1
20260901201431 101 57 2.0 10.0 0.00 0.00 0.00 40 1014.8
20260901200733 99 65 5.0 10.0 0.00 0.00 0.00 41 1015.1
20260901195344 97 64 8.0 8.0 0.00 0.00 0.00 42 1015.1
20260901194631 97 49 2.0 8.0 0.00 0.00 0.00 42 1015.5
20260901193931 96 85 5.0 8.0 0.00 0.00 0.00 42 1015.5
20260901193231 97 64 2.0 8.0 0.00 0.00 0.00 42 1015.5
20260901192531 98 64 2.0 8.0 0.00 0.00 0.00 41 1015.8
20260901191831 98 58 2.0 8.0 0.00 0.00 0.00 41 1015.8
20260901191131 99 103 5.0 8.0 0.00 0.00 0.00 41 1015.8
20260901190431 98 73 0.0 8.0 0.00 0.00 0.00 42 1015.8
20260901185735 98 59 2.0 10.0 0.00 0.00 0.00 43 1016.2
20260901185031 97 64 8.0 10.0 0.00 0.00 0.00 43 1016.2
20260901184331 97 32 5.0 10.0 0.00 0.00 0.00 42 1016.5
20260901183631 99 60 5.0 10.0 0.00 0.00 0.00 41 1016.5
20260901182931 100 61 0.0 10.0 0.00 0.00 0.00 41 1016.8
20260901182231 100 83 5.0 10.0 0.00 0.00 0.00 42 1016.8
20260901181531 100 86 8.0 10.0 0.00 0.00 0.00 43 1016.8
20260901180831 99 51 8.0 8.0 0.00 0.00 0.00 43 1016.8
20260901180131 97 21 5.0 8.0 0.00 0.00 0.00 46 1017.2
20260901174731 97 59 2.0 10.0 0.00 0.00 0.00 44 1017.5
20260901173332 100 20 5.0 10.0 0.00 0.00 0.00 43 1017.5
20260901172631 100 57 0.0 10.0 0.00 0.00 0.00 44 1017.5
20260901171931 101 62 0.0 10.0 0.00 0.00 0.00 44 1017.9
20260901171231 101 59 5.0 10.0 0.00 0.00 0.00 45 1017.9
20260901170530 100 61 2.0 6.0 0.00 0.00 0.00 46 1017.9
20260901165831 98 60 2.0 6.0 0.00 0.00 0.00 46 1017.9
20260901163731 97 61 8.0 6.0 0.00 0.00 0.00 47 1018.2
20260901163031 98 58 0.0 6.0 0.00 0.00 0.00 48 1017.9
20260901162331 97 59 0.0 6.0 0.00 0.00 0.00 49 1018.5
20260901161631 96 56 2.0 6.0 0.00 0.00 0.00 49 1017.9
20260901160931 96 65 0.0 6.0 0.00 0.00 0.00 49 1018.2
20260901160232 96 51 5.0 6.0 0.00 0.00 0.00 51 1017.9
20260901155531 96 58 2.0 6.0 0.00 0.00 0.00 51 1018.2
20260901154831 95 55 0.0 6.0 0.00 0.00 0.00 52 1017.9
20260901154131 95 41 2.0 6.0 0.00 0.00 0.00 53 1018.2
20260901152730 92 52 2.0 6.0 0.00 0.00 0.00 55 1017.9
20260901152030 92 47 2.0 6.0 0.00 0.00 0.00 56 1017.9
20260901151331 91 59 0.0 6.0 0.00 0.00 0.00 58 1017.9
20260901150630 90 58 0.0 6.0 0.00 0.00 0.00 58 1018.2
20260901145931 89 69 2.0 6.0 0.00 0.00 0.00 59 1018.5
20260901145230 88 57 2.0 6.0 0.00 0.00 0.00 60 1018.5
20260901144531 88 60 2.0 6.0 0.00 0.00 0.00 60 1018.2
20260901143830 88 55 2.0 6.0 0.00 0.00 0.00 60 1018.5
20260901143130 88 58 0.0 6.0 0.00 0.00 0.00 60 1018.5
20260901142430 88 54 0.0 6.0 0.00 0.00 0.00 60 1018.2
20260901141731 88 57 2.0 6.0 0.00 0.00 0.00 60 1018.2
20260901141030 88 53 2.0 6.0 0.00 0.00 0.00 61 1018.5
20260901140331 87 61 0.0 6.0 0.00 0.00 0.00 62 1018.5
20260901135630 86 72 0.0 6.0 0.00 0.00 0.00 62 1018.5
20260901134931 86 60 0.0 6.0 0.00 0.00 0.00 63 1018.2
20260901134230 84 62 0.0 6.0 0.00 0.00 0.00 65 1018.5
20260901133530 83 61 0.0 6.0 0.00 0.00 0.00 65 1018.2
20260901132831 82 61 0.0 6.0 0.00 0.00 0.00 66 1018.2
20260901132130 82 66 5.0 6.0 0.00 0.00 0.00 66 1018.2
20260901131431 81 57 0.0 4.0 0.00 0.00 0.00 67 1018.2
20260901130030 80 71 5.0 4.0 0.00 0.00 0.00 67 1018.2
20260901125532 80 60 2.0 2.0 0.00 0.00 0.00 67 1018.2
20260901124830 80 61 0.0 2.0 0.00 0.00 0.00 67 1017.9
20260901124130 79 59 0.0 0.0 0.00 0.00 0.00 68 1017.9
20260901123431 79 61 0.0 0.0 0.00 0.00 0.00 68 1017.5
20260901122030 79 61 0.0 0.0 0.00 0.00 0.00 67 1017.5
20260901115933 79 59 0.0 2.0 0.00 0.00 0.00 66 1017.2
20260901115232 79 58 0.0 2.0 0.00 0.00 0.00 66 1017.5
20260901114533 79 59 0.0 2.0 0.00 0.00 0.00 66 1017.5
20260901113833 79 59 0.0 2.0 0.00 0.00 0.00 66 1017.2